Location: Cahoon Acres
(40.8736°N, 111.8994°W)
Time: 05:49:03
(UTC+00:00)

SR - All Passes

Search period start: 06 June 2020 00:00
Search period end: 16 June 2020 00:00
Orbit: 582 x 874 km, 66.7° (Epoch: 05 June)

Date Brightness Start Highest point End Pass type
(mag) Time Alt. Az. Time Alt. Az. Time Alt. Az.
06 Jun - 05:43:10 10° NNW 05:47:25 56° ENE 05:51:34 10° SE visible
06 Jun - 07:27:04 10° W 07:28:51 12° WSW 07:30:38 10° SW visible
06 Jun - 20:12:15 10° S 20:17:21 44° ESE 20:22:04 10° NE daylight
06 Jun - 21:55:12 10° WSW 21:59:32 26° NW 22:03:36 10° N daylight
07 Jun - 04:53:52 10° N 04:57:33 27° NE 05:01:10 10° ESE visible
07 Jun - 06:35:50 10° NW 06:39:31 28° WSW 06:43:09 10° S visible
07 Jun - 19:23:49 10° SSE 19:27:51 22° ESE 19:31:41 10° ENE daylight
07 Jun - 21:04:31 10° SW 21:09:39 48° WNW 21:14:23 10° NNE daylight
08 Jun - 04:05:08 10° N 04:07:30 14° NE 04:09:49 10° ENE visible
08 Jun - 05:45:45 10° NW 05:50:00 67° WSW 05:54:12 10° SSE visible
08 Jun - 18:38:10 10° ESE 18:38:30 10° ESE 18:38:50 10° E daylight
08 Jun - 20:14:34 10° SSW 20:19:55 85° ESE 20:24:50 10° NNE daylight
08 Jun - 21:59:31 10° W 22:02:30 15° NW 22:05:21 10° N daylight
09 Jun - 04:56:06 10° NNW 05:00:19 52° ENE 05:04:28 10° SE visible
09 Jun - 06:39:43 10° WNW 06:41:49 13° WSW 06:43:55 10° SW visible
09 Jun - 19:25:18 10° S 19:30:18 41° ESE 19:34:57 10° NE daylight
09 Jun - 21:08:02 10° WSW 21:12:26 27° NW 21:16:34 10° N daylight
10 Jun - 04:06:52 10° N 04:10:27 25° NE 04:13:59 10° ESE visible
10 Jun - 05:48:42 10° NW 05:52:27 31° WSW 05:56:11 10° S visible
10 Jun - 18:36:58 10° SSE 18:40:49 20° ESE 18:44:29 10° ENE daylight
10 Jun - 20:17:27 10° SW 20:22:35 51° WNW 20:27:18 10° NNE daylight
11 Jun - 03:18:13 10° NNE 03:20:22 13° NE 03:22:29 10° ENE daylight
11 Jun - 04:58:39 10° NNW 05:02:56 73° WSW 05:07:09 10° SSE visible
11 Jun - 19:27:32 10° SSW 19:32:51 80° ESE 19:37:44 10° NNE daylight
11 Jun - 21:12:17 10° W 21:15:23 16° NW 21:18:22 10° N daylight
12 Jun - 04:09:04 10° NNW 04:13:13 48° ENE 04:17:20 10° SE visible
12 Jun - 05:52:24 10° WNW 05:54:47 15° WSW 05:57:08 10° SW visible
12 Jun - 18:38:21 10° S 18:43:16 39° ESE 18:47:49 10° NE daylight
12 Jun - 20:20:54 10° WSW 20:25:21 29° NW 20:29:32 10° N daylight
13 Jun - 03:19:51 10° N 03:23:20 23° NE 03:26:46 10° ESE daylight
13 Jun - 05:01:33 10° NW 05:05:23 33° WSW 05:09:12 10° S visible
13 Jun - 17:50:09 10° SSE 17:53:47 19° ESE 17:57:15 10° ENE daylight
13 Jun - 19:30:22 10° SW 19:35:30 55° WNW 19:40:15 10° NNE daylight
14 Jun - 02:31:20 10° NNE 02:33:14 13° NE 02:35:08 10° ENE daylight
14 Jun - 04:11:34 10° NNW 04:15:51 79° WSW 04:20:05 10° SSE visible
14 Jun - 18:40:31 10° SSW 18:45:48 75° ESE 18:50:38 10° NNE daylight
14 Jun - 20:25:03 10° W 20:28:16 17° NW 20:31:22 10° N daylight
15 Jun - 03:22:00 10° NNW 03:26:08 45° NE 03:30:12 10° SE daylight
15 Jun - 05:05:08 10° WNW 05:07:44 16° WSW 05:10:19 10° SW visible
15 Jun - 17:51:25 10° S 17:56:13 36° ESE 18:00:40 10° NE daylight
15 Jun - 19:33:45 10° WSW 19:38:16 30° NW 19:42:29 10° N daylight
